{"data":{"norad_id":41592,"intl_designator":"2016-039B","name":"ECHOSTAR 18","alt_names":[],"object_type":"PAYLOAD","status":"ACTIVE","operator":null,"country":"US","launch_date":"2016-06-18","launch_site_code":"FRGUI","launch_vehicle":null,"mission":null,"orbit_class":"UNKNOWN","rcs_meters":37.7081,"size_class":null,"mass_kg":null,"dimensions":null,"purposes":["comms"],"wikipedia_slug":null,"has_3d_model":false,"image_url":null,"decayed_at":null,"tle_current":{"epoch":"2026-09-20T01:47:05.930016Z","epoch_age_seconds":62464,"freshness":"FRESH","line1":"1 41592U 16039B   26263.07437419  .00000000  00000+0  00000+0 0  9992","line2":"2 41592   0.0242 153.5892 0001762  15.3094 155.5012  1.00268456 37575","mean_motion":1.00268456,"eccentricity":0.0001762,"inclination_deg":0.0242,"raan_deg":153.5892,"arg_perigee_deg":15.3094,"mean_anomaly_deg":155.5012,"bstar":0,"rev_number":3757,"period_min":1436.1445836964,"perigee_km":35780.098636344,"apogee_km":35794.95781677,"semimajor_km":42165.665226557,"source":"CELESTRAK","updated_at":"2026-09-20T09:00:35.226095Z"}}}